[TLELIST] Archives

 

[list_settings.list_name] Current TLEs

September 28th 2012 PDT

HST 1 20580U 90037B 12272.20342134 .00002666 00000-0 18200-3 0 790 2 20580 028.4698 189.2479 0003213 083.3903 276.7156 15.02825422 30243 ISS (ZARYA) 1 25544U 98067A 12272.47535880 .00021202 00000-0 37238-3 0 3777 2 25544 051.6481 328.0479 0018349 109.9535 083.2438 15.50289380794062 CXO 1 25867U 99040B 12274.73288488 -.00000081 00000-0 00000+0 0 7979 2 25867 073.4514 357.0738 8728151 278.1725 000.4911 00.37805446 9552 ____________________________________________________________________ These 2-Line ...Continue Reading

[list_settings.list_name] Current TLEs

September 27th 2012 PDT

HST 1 20580U 90037B 12271.20726304 .00002390 00000-0 16187-3 0 789 2 20580 028.4692 195.7700 0003189 071.1538 288.9500 15.02819243 30092 ISS (ZARYA) 1 25544U 98067A 12271.49726881 .00019561 00000-0 34485-3 0 3733 2 25544 051.6486 332.8945 0018286 106.6077 024.2886 15.50241521793913 CXO 1 25867U 99040B 12272.09085923 .00000079 00000-0 00000+0 0 7960 2 25867 073.4293 357.2637 8731849 278.1722 000.8655 00.37807655 9543 ____________________________________________________________________ These 2-Line ...Continue Reading

[list_settings.list_name] Current TLEs

September 26th 2012 PDT

HST 1 20580U 90037B 12270.07828092 .00002125 00000-0 14256-3 0 770 2 20580 028.4693 203.1617 0003238 057.4288 302.6842 15.02813312 29922 ISS (ZARYA) 1 25544U 98067A 12270.44608480 .00016885 00000-0 29944-3 0 3663 2 25544 051.6492 338.1024 0018345 102.8601 277.6920 15.50188749793751 CXO 1 25867U 99040B 12272.09085923 .00000079 00000-0 00000+0 0 7960 2 25867 073.4293 357.2637 8731849 278.1722 000.8655 00.37807655 9543 ____________________________________________________________________ These 2-Line ...Continue Reading

[list_settings.list_name] Current TLEs

September 25th 2012 PDT

HST 1 20580U 90037B 12267.15617964 .00001786 00000-0 11787-3 0 766 2 20580 028.4696 222.2943 0003011 025.1168 334.9623 15.02801047 29485 ISS (ZARYA) 1 25544U 98067A 12269.44297454 .00016502 00000-0 29320-3 0 3626 2 25544 051.6488 343.0733 0018432 099.7607 079.1134 15.50151818793596 CXO 1 25867U 99040B 12266.82621174 .00000000 00000-0 10000-3 0 7945 2 25867 073.3791 357.5938 8729677 278.1616 004.4035 00.37814387 9621 ____________________________________________________________________ These 2-Line ...Continue Reading

[list_settings.list_name] Current TLEs

September 24th 2012 PDT

HST 1 20580U 90037B 12267.15617964 .00001786 00000-0 11787-3 0 766 2 20580 028.4696 222.2943 0003011 025.1168 334.9623 15.02801047 29485 ISS (ZARYA) 1 25544U 98067A 12268.39584943 .00017213 00000-0 30581-3 0 3565 2 25544 051.6491 348.2616 0018435 095.6717 355.8883 15.50119432793431 CXO 1 25867U 99040B 12269.44157616 .00000230 00000-0 00000+0 0 7952 2 25867 073.4049 357.4585 8733629 278.1566 000.3104 00.37803257 9537 ____________________________________________________________________ These 2-Line ...Continue Reading

[list_settings.list_name] Current TLEs

September 23rd 2012 PDT

HST 1 20580U 90037B 12267.15617964 .00001786 00000-0 11787-3 0 766 2 20580 028.4696 222.2943 0003011 025.1168 334.9623 15.02801047 29485 ISS (ZARYA) 1 25544U 98067A 12267.42619509 .00017347 00000-0 30849-3 0 3504 2 25544 051.6497 353.0659 0018431 092.6807 344.2809 15.50085988793282 CXO 1 25867U 99040B 12269.44157616 .00000230 00000-0 00000+0 0 7952 2 25867 073.4049 357.4585 8733629 278.1566 000.3104 00.37803257 9537 ____________________________________________________________________ These 2-Line ...Continue Reading

[list_settings.list_name] Current TLEs

September 22nd 2012 PDT

HST 1 20580U 90037B 12266.22641602 .00001597 00000-0 10412-3 0 752 2 20580 028.4694 228.3811 0002953 014.6490 345.4230 15.02797220 29342 ISS (ZARYA) 1 25544U 98067A 12266.05769676 .00013543 00000-0 24330-3 0 3448 2 25544 051.6499 359.8441 0018250 087.8946 267.4779 15.50025151793060 CXO 1 25867U 99040B 12266.79633526 .00000163 00000-0 00000+0 0 7939 2 25867 073.3861 357.6194 8734333 278.1455 000.3314 00.37802364 9526 ____________________________________________________________________ These 2-Line ...Continue Reading

[list_settings.list_name] Current TLEs

September 21st 2012 PDT

HST 1 20580U 90037B 12265.23024107 .00001540 00000-0 10000-3 0 747 2 20580 028.4696 234.9010 0002865 006.7120 353.3694 15.02793937 29198 ISS (ZARYA) 1 25544U 98067A 12265.42146587 .00013102 00000-0 23584-3 0 3405 2 25544 051.6500 002.9969 0018143 085.8770 316.9377 15.50005119792973 CXO 1 25867U 99040B 12264.15189278 +.00000077 +00000-0 +00000-0 0 00014 2 25867 073.3645 357.8085 8734694 278.1232 000.4855 00.37807103015041 ____________________________________________________________________ These 2-Line ...Continue Reading

[list_settings.list_name] Current TLEs

September 20th 2012 PDT

HST 1 20580U 90037B 12263.23787721 .00001168 00000-0 72793-4 0 736 2 20580 028.4694 247.9511 0002992 341.4422 018.6077 15.02787815 28891 ISS (ZARYA) 1 25544U 98067A 12264.39661888 .00012007 00000-0 21706-3 0 3346 2 25544 051.6500 008.0741 0018257 081.8285 358.5868 15.49973459792810 CXO 1 25867U 99040B 12264.15189278 +.00000077 +00000-0 +00000-0 0 00014 2 25867 073.3645 357.8085 8734694 278.1232 000.4855 00.37807103015041 ____________________________________________________________________ These 2-Line ...Continue Reading

[list_settings.list_name] Current TLEs

September 19th 2012 PDT

HST 1 20580U 90037B 12263.23787721 .00001168 00000-0 72793-4 0 736 2 20580 028.4694 247.9511 0002992 341.4422 018.6077 15.02787815 28891 ISS (ZARYA) 1 25544U 98067A 12263.36226316 .00011260 00000-0 20428-3 0 3277 2 25544 051.6501 013.1989 0018189 078.2706 346.7741 15.49946009792656 CXO 1 25867U 99040B 12264.15326921 .00000077 00000-0 00000+0 0 7928 2 25867 073.3645 357.8084 8734691 278.1233 000.6730 00.37806832 9515 ____________________________________________________________________ These 2-Line ...Continue Reading
  • This mailing list is a public mailing list - anyone may join or leave, at any time.
  • This mailing list is announce-only.

International Space Station (ISS) / Hubble Space Telescope (HST) / Chandra X-Ray Observatory Orbital Data via EMAIL

Privacy Policy:

Private list